Tracking 35331 objects as of 16-Sep-2026
HD Live streaming from Space Station
objects crossing your sky now

COSMOS 1813 DEB


COSMOS 1813 DEB is no longer on orbit


NORAD ID: 17899
Int'l Code: 1987-004DH
Launch date: January 15, 1987
Source: Commonwealth of Independent States (former USSR) (CIS)
Launch site: PLESETSK MISSILE AND SPACE COMPLEX (PKMTR)
Decay date: 1988-11-05

Note: This is SATELLITE DEBRIS
Your satellite tracking list
Your tracking list is empty




NASA's NSSDC Master Catalog

Two Line Element Set (TLE):
1 17899U 87004 DH 88310.11929130  .09372518 +80000-5 +16511-2 0  9993
2 17899 072.7456 208.2857 0015501 145.4036 222.0605 16.32190122097149
Source of the keplerian elements: AFSPC